TimeCDT,TemperatureF,Dew PointF,Humidity,Sea Level PressureIn,VisibilityMPH,Wind Direction,Wind SpeedMPH,Gust SpeedMPH,PrecipitationIn,Events,Conditions,WindDirDegrees,DateUTC
12:53 AM,79.0,57.0,47,29.74,10.0,South,26.5,35.7,N/A,,Mostly Cloudy,170,2013-06-23 05:53:00
1:53 AM,77.0,55.9,48,29.74,10.0,South,18.4,28.8,N/A,,Scattered Clouds,180,2013-06-23 06:53:00
2:53 AM,75.9,54.0,46,29.75,10.0,South,17.3,-,N/A,,Partly Cloudy,180,2013-06-23 07:53:00
3:53 AM,73.9,54.0,50,29.75,10.0,South,12.7,-,N/A,,Partly Cloudy,170,2013-06-23 08:53:00
4:53 AM,72.0,54.0,53,29.76,10.0,SSE,9.2,-,N/A,,Scattered Clouds,160,2013-06-23 09:53:00
5:53 AM,72.0,53.1,51,29.75,10.0,South,10.4,-,N/A,,Scattered Clouds,170,2013-06-23 10:53:00
6:53 AM,70.0,55.0,59,29.74,10.0,SSE,11.5,-,N/A,,Mostly Cloudy,160,2013-06-23 11:53:00
7:53 AM,72.0,55.0,55,29.75,10.0,South,15.0,21.9,N/A,,Mostly Cloudy,170,2013-06-23 12:53:00
8:53 AM,75.9,57.0,52,29.75,10.0,South,17.3,-,N/A,,Partly Cloudy,180,2013-06-23 13:53:00
9:53 AM,80.1,57.9,47,29.75,10.0,South,20.7,27.6,N/A,,Scattered Clouds,190,2013-06-23 14:53:00
10:53 AM,84.9,57.9,40,29.74,10.0,South,17.3,-,N/A,,Scattered Clouds,190,2013-06-23 15:53:00
11:53 AM,89.1,57.0,34,29.74,10.0,SSW,16.1,-,N/A,,Mostly Cloudy,200,2013-06-23 16:53:00
12:53 PM,93.0,53.1,26,29.72,10.0,SSW,12.7,-,N/A,,Mostly Cloudy,200,2013-06-23 17:53:00
1:53 PM,97.0,54.0,23,29.71,10.0,South,15.0,23.0,N/A,,Partly Cloudy,180,2013-06-23 18:53:00
2:53 PM,98.1,52.0,21,29.69,10.0,South,12.7,21.9,N/A,,Partly Cloudy,190,2013-06-23 19:53:00
3:53 PM,100.0,51.1,19,29.67,10.0,South,16.1,23.0,N/A,,Scattered Clouds,180,2013-06-23 20:53:00
4:53 PM,98.1,55.0,24,29.67,10.0,South,20.7,32.2,N/A,,Scattered Clouds,170,2013-06-23 21:53:00
5:53 PM,97.0,55.9,25,29.66,10.0,SSE,24.2,31.1,N/A,,Partly Cloudy,160,2013-06-23 22:53:00
6:53 PM,93.9,57.0,29,29.66,10.0,SSE,26.5,32.2,N/A,,Scattered Clouds,160,2013-06-23 23:53:00
7:53 PM,91.9,57.0,31,29.68,10.0,South,21.9,29.9,N/A,,Scattered Clouds,170,2013-06-24 00:53:00
8:53 PM,90.0,59.0,35,29.69,10.0,SSE,25.3,32.2,N/A,,Scattered Clouds,160,2013-06-24 01:53:00
9:53 PM,87.1,59.0,39,29.71,10.0,SSE,20.7,28.8,N/A,,Scattered Clouds,160,2013-06-24 02:53:00
10:53 PM,84.0,57.0,40,29.73,10.0,SSE,21.9,-,N/A,,Scattered Clouds,160,2013-06-24 03:53:00
11:53 PM,82.0,55.9,41,29.74,10.0,South,20.7,28.8,N/A,,Partly Cloudy,170,2013-06-24 04:53:00